Overview Statistics Trail Chart Weather Telemetry Raw packets
 

This is the latest recevied weather packets stored in our database for station/object KD0TNH-13. If no packets are shown the sender has not sent any weather packets the latest 10 day(s).

<< 86 87 88 89 90 91 92 >>
Time Temp. Humidity Pressure Rain* Wind** Luminosity Snow
1787927267 21.67° C 80% 29.4 hPa 0 mm 0 m/s - -
1787926967 21.67° C 78% 29.4 hPa 0 mm 1.34 m/s, 198° - -
1787926666 21.67° C 78% 29.4 hPa 0 mm 0.45 m/s, 169° - -
1787926365 21.67° C 79% 29.4 hPa 0 mm 0.89 m/s, 193° - -
1787926065 21.11° C 81% 29.4 hPa 0 mm 0 m/s - -
1787925764 21.11° C 79% 29.4 hPa 0 mm 0.89 m/s, 242° - -
1787925464 21.67° C 78% 29.4 hPa 0 mm 0.89 m/s, 211° - -
1787925163 21.67° C 78% 29.4 hPa 0 mm 1.34 m/s, 235° - -
1787924863 21.11° C 78% 29.4 hPa 0 mm 0.45 m/s, 179° - -
1787924562 21.11° C 80% 29.4 hPa 0 mm 0.45 m/s, 154° - -
1787924261 21.11° C 79% 29.4 hPa 0 mm 0.89 m/s, 129° - -
1787923960 20.56° C 80% 29.4 hPa 0 mm 0 m/s - -
1787923660 20.56° C 80% 29.4 hPa 0 mm 0.45 m/s, 195° - -
1787923360 20.56° C 80% 29.4 hPa 0 mm 0.45 m/s, 222° - -
1787923059 20.56° C 82% 29.4 hPa 0 mm 0 m/s - -
1787922759 20° C 81% 29.4 hPa 0 mm 0 m/s - -
1787922458 20° C 82% 29.4 hPa 0 mm 0 m/s - -
1787922158 19.44° C 83% 29.4 hPa 0 mm 0.45 m/s, 221° - -
1787921857 18.89° C 85% 29.4 hPa 0 mm 0.45 m/s, 224° - -
1787921556 17.78° C 87% 29.4 hPa 0 mm 0 m/s - -
1787921256 17.22° C 90% 29.4 hPa 0 mm 0 m/s - -
1787920956 16.67° C 92% 29.4 hPa 0 mm 0 m/s - -
1787920655 16.67° C 92% 29.3 hPa 0 mm 0 m/s - -
1787920355 16.11° C 93% 29.3 hPa 0 mm 0 m/s - -
1787920054 16.11° C 93% 29.3 hPa 0 mm 0 m/s - -

* Rain latest hour (hover to see other rain measurements)
** Current wind speed in m/s (hover to see current wind gust speed)